Theta_e
314 313 313 312 312 312 311 310 308 307 307 306 307 306 306 307 307 307 307 307 307 307 307 307 308 309 310 311 312 313 313 315 315 316 316 316 318 314 312 313 314 315 315 314 314 314 313 314 314 312 316 317 313 315 313 315 326 338 338 331 322 322 323 322 321 318 320 322 317 315 316 318 317 314 311 309 316 319 316 317 316 313 310 310 312 312 314 320
313 313 312 312 312 311 311 310 307 307 307 307 306 306 306 307 307 307 307 307 307 307 307 307 308 309 310 312 312 313 314 317 318 315 313 314 317 315 313 314 315 315 315 315 315 314 316 317 313 313 321 319 312 316 317 312 322 338 335 328 326 326 320 319 322 318 316 318 318 317 315 316 316 315 312 311 317 317 317 318 317 318 316 312 312 313 318 323
312 312 311 312 311 310 310 310 309 308 307 307 306 306 306 307 307 307 307 307 307 307 307 308 309 310 311 313 313 314 316 318 319 316 313 314 315 314 314 315 315 315 316 316 316 314 316 316 311 315 324 320 315 319 324 316 317 326 330 329 327 326 320 315 319 319 316 316 319 317 313 315 314 314 313 314 318 316 320 322 318 323 324 318 313 312 319 324
312 311 310 310 311 310 309 309 310 309 308 307 307 307 306 307 307 307 307 307 307 307 308 309 309 311 312 313 313 314 317 319 318 315 313 314 313 314 314 314 315 316 316 316 316 315 314 313 311 318 322 320 323 323 321 317 315 318 325 325 320 320 319 316 317 319 317 314 318 319 314 315 313 313 314 314 317 317 321 323 320 325 328 323 315 311 316 321
311 310 309 310 311 310 309 308 309 310 310 309 307 307 307 308 307 307 308 307 308 308 309 310 310 312 313 313 315 315 320 321 317 313 313 313 313 314 314 313 315 316 316 316 316 315 314 312 315 326 324 321 328 325 317 314 316 317 317 317 317 317 316 317 317 317 317 314 317 319 314 314 313 313 316 315 317 320 320 318 317 320 323 321 315 310 312 315
311 310 309 310 310 310 309 308 309 310 310 309 308 307 308 308 308 308 307 308 308 309 310 311 311 313 313 314 315 315 319 319 315 313 313 314 313 313 313 313 315 316 316 317 315 314 316 316 320 328 324 320 321 320 317 313 314 319 316 314 317 317 315 316 316 316 317 317 319 319 315 314 315 315 316 314 316 318 314 312 312 311 311 313 311 310 313 312
310 310 310 309 309 310 310 308 309 310 309 308 308 307 308 307 308 308 307 308 308 310 311 311 312 313 314 315 315 318 321 318 315 314 314 313 313 313 313 314 315 316 317 315 315 317 322 323 323 324 322 319 316 315 317 315 318 324 320 316 316 315 316 316 316 317 316 318 319 316 313 315 318 316 313 314 318 317 311 307 306 306 307 309 311 311 311 310
310 309 309 309 308 309 309 308 308 309 308 307 308 307 307 307 307 308 307 308 308 310 311 312 313 313 314 315 317 322 322 318 316 315 314 313 313 313 313 315 316 316 316 314 314 317 321 321 319 319 320 318 315 315 315 316 322 324 319 318 317 315 317 317 317 319 317 316 315 314 315 317 318 314 312 318 320 316 310 307 306 307 309 312 316 314 307 306
310 309 309 308 307 308 308 307 307 308 307 307 308 308 307 307 307 308 308 308 309 310 311 312 313 313 315 314 315 318 317 317 317 316 314 313 313 313 313 315 316 316 316 314 313 314 317 318 317 317 319 317 314 316 316 317 319 318 318 319 317 317 321 318 316 319 318 317 314 314 318 317 314 312 315 322 319 312 310 311 310 312 315 317 319 312 305 305
310 309 309 308 306 306 307 307 306 306 306 307 308 308 307 307 308 308 308 308 309 311 312 313 313 314 315 314 314 313 315 318 318 315 314 313 313 312 313 315 316 317 315 314 313 313 315 316 315 313 316 317 315 315 314 316 316 315 319 320 318 321 323 318 316 319 317 316 315 315 319 318 313 313 317 320 314 310 314 315 312 316 320 318 317 311 306 306
310 309 309 308 307 307 308 308 307 308 308 308 308 308 307 307 307 308 308 309 310 312 313 313 314 315 314 316 319 315 316 320 317 315 314 313 312 312 314 315 316 316 315 314 313 313 313 313 310 310 315 315 314 316 313 313 313 315 318 319 321 325 322 318 318 318 315 316 317 315 316 316 313 314 319 318 310 310 319 319 312 316 319 315 316 312 306 305
310 310 310 309 308 308 309 309 308 309 310 310 308 307 308 307 307 308 309 310 312 312 313 314 314 316 315 316 321 319 318 320 316 314 313 312 312 313 314 316 316 316 316 314 312 313 313 312 312 315 317 313 315 317 313 313 314 316 319 318 324 330 324 317 318 316 313 315 317 315 315 318 315 315 318 314 308 310 317 320 315 315 316 313 313 311 306 304
311 311 311 310 309 309 310 310 309 309 310 310 309 307 307 307 307 308 309 311 312 313 314 314 315 316 314 316 319 316 317 319 316 314 313 313 313 315 315 316 316 316 316 315 312 312 313 312 314 316 316 317 318 313 315 318 316 318 318 319 324 329 327 318 314 313 313 315 316 315 318 328 327 320 317 311 309 312 316 319 316 315 314 312 311 310 309 304
311 311 311 311 310 311 311 311 311 311 310 310 309 307 306 306 307 309 310 312 312 313 314 314 316 315 315 317 316 315 317 317 317 315 313 313 314 315 316 316 316 315 316 315 313 313 313 312 313 315 313 317 316 311 324 331 324 321 315 323 328 321 328 325 315 315 314 314 315 315 319 326 329 324 317 310 309 313 318 318 314 315 314 312 310 310 310 305
311 311 311 311 311 311 311 311 312 311 311 312 310 308 307 307 308 310 312 313 313 314 315 315 315 317 319 319 315 315 317 317 319 317 314 314 314 315 315 315 316 315 315 315 314 313 313 313 315 319 313 313 316 318 332 333 331 330 316 326 330 317 331 335 318 316 316 313 312 315 320 322 322 321 315 309 309 312 317 317 313 314 313 311 311 309 310 306
311 311 310 311 311 311 311 311 311 311 312 312 310 309 308 308 310 311 313 314 314 314 315 315 314 315 319 317 314 315 316 317 319 316 315 315 315 316 315 315 314 314 314 313 314 313 313 316 316 315 314 316 324 333 337 329 332 334 319 323 330 321 327 329 318 316 316 314 313 314 321 325 323 320 313 308 309 311 315 316 313 313 312 311 309 308 309 308
312 312 311 311 311 311 311 311 311 312 312 311 311 311 310 311 312 312 314 315 316 316 314 316 313 312 314 313 315 317 316 318 318 316 316 315 315 316 314 314 312 312 314 312 314 314 313 318 315 313 319 322 326 333 331 324 327 331 320 321 329 325 323 325 325 319 313 314 314 314 317 320 323 320 315 311 309 311 314 315 314 311 310 309 308 308 308 308
312 312 312 311 311 311 311 311 312 313 313 312 312 312 313 314 314 314 315 315 315 313 312 314 311 311 312 311 314 317 316 317 317 315 316 316 315 315 314 313 310 311 316 315 314 316 316 320 321 321 324 322 322 326 324 322 327 332 328 325 326 323 320 324 328 319 312 313 315 316 316 317 318 316 317 316 310 312 315 313 312 311 310 309 308 308 307 306
313 313 312 312 311 311 311 311 311 313 313 312 313 314 313 313 314 315 316 315 314 311 312 314 311 311 313 313 314 315 315 316 316 315 315 316 314 314 314 311 314 317 319 319 316 317 320 323 325 324 323 322 321 321 321 322 325 331 334 333 330 325 323 326 329 323 315 313 316 317 316 317 316 314 316 317 312 312 314 311 310 311 310 310 308 307 306 306
314 314 313 312 312 311 311 310 310 312 312 313 315 312 311 315 315 314 316 318 319 314 315 318 315 314 316 316 316 315 316 316 315 316 315 315 314 314 314 312 319 322 320 325 321 315 319 322 326 327 324 322 320 319 321 323 324 326 329 332 330 326 327 330 329 325 316 314 320 319 316 316 315 315 315 315 314 313 314 312 311 311 310 310 309 307 306 305
314 314 313 313 312 312 311 310 311 313 312 314 315 310 312 317 312 311 318 321 317 312 315 318 314 314 315 315 315 314 317 318 315 315 315 314 314 316 317 316 321 322 322 326 322 315 319 322 325 327 322 319 318 319 321 323 322 324 325 325 327 326 328 329 324 322 317 316 324 324 318 317 314 314 313 313 315 316 315 314 313 312 310 309 309 308 307 305
314 314 314 313 313 312 311 311 313 314 313 314 314 312 313 315 312 312 315 318 317 313 314 315 313 316 314 312 315 314 318 322 318 316 315 313 314 317 319 321 323 324 322 321 320 320 322 324 323 321 321 320 320 319 318 319 319 323 327 322 325 327 325 327 324 320 317 316 325 327 321 318 316 315 314 313 313 313 313 313 313 313 312 310 309 308 307 306
315 314 314 313 313 312 311 311 313 315 314 314 313 313 313 314 314 313 312 316 319 316 316 316 316 319 318 313 314 316 318 323 322 319 316 313 316 318 318 321 323 323 321 320 323 325 325 328 323 317 320 322 321 320 318 319 319 322 326 323 324 326 324 327 327 321 318 317 321 326 320 317 317 317 317 315 314 313 312 312 312 311 312 311 310 309 308 307
316 315 314 314 313 312 312 312 314 315 314 313 313 314 315 316 315 313 315 317 317 318 317 315 314 317 320 315 313 318 319 320 322 319 315 314 317 317 317 320 322 322 321 320 323 323 324 325 318 316 320 320 321 322 320 321 322 323 323 322 323 326 325 327 326 323 324 321 319 323 323 323 324 322 320 318 317 317 315 315 315 312 311 310 310 310 308 307
316 315 314 314 313 312 311 312 315 315 315 313 313 313 315 316 314 312 316 317 316 319 315 312 313 316 316 314 314 319 319 319 322 318 313 314 317 317 317 319 321 323 321 319 319 321 322 320 317 320 318 318 322 323 324 325 324 326 326 322 321 325 325 324 324 323 328 331 322 319 326 334 333 326 324 324 324 325 320 317 318 315 312 311 310 310 308 306
316 316 315 314 314 312 311 313 315 315 316 314 311 312 315 316 315 312 316 319 317 317 314 312 315 316 313 314 317 317 317 318 317 315 313 314 315 316 318 318 318 321 321 319 319 320 320 316 320 327 322 320 322 321 325 323 321 327 327 323 320 320 322 323 323 323 330 334 321 317 328 333 328 325 328 330 331 333 328 323 320 316 315 313 309 309 308 306
317 316 315 314 313 312 312 314 315 315 316 314 311 312 314 316 315 311 313 318 315 314 317 314 312 313 314 315 314 313 314 316 314 313 314 314 314 314 318 319 317 319 319 319 321 320 319 317 319 325 325 324 322 323 324 320 324 330 324 321 321 320 321 322 323 324 328 328 320 322 329 328 325 324 324 326 328 330 327 325 322 318 317 315 310 308 308 306
317 316 316 315 313 312 312 314 315 315 315 314 311 312 315 316 314 312 312 313 312 313 318 316 311 311 315 313 313 315 315 316 318 316 313 313 314 315 319 321 320 321 320 320 320 318 320 323 322 321 324 324 325 329 326 319 325 328 318 318 321 321 324 324 324 325 324 323 323 323 323 326 329 325 321 321 323 326 326 325 322 319 322 319 312 309 307 306
318 317 316 315 314 312 312 314 314 314 313 313 313 313 315 314 313 314 313 310 313 317 315 315 314 314 316 312 314 320 317 317 320 316 312 313 314 316 319 321 321 321 318 317 320 319 318 320 320 321 323 325 326 325 320 319 324 319 313 317 320 321 324 326 328 328 326 326 327 326 324 328 330 327 325 322 322 328 327 324 320 321 326 322 313 308 306 305
318 317 316 315 314 312 312 313 314 313 312 313 314 313 315 315 313 312 312 310 314 319 314 314 316 317 317 314 316 320 318 318 318 315 316 316 315 317 317 317 322 325 321 318 321 321 316 313 315 320 322 322 324 317 313 319 320 315 319 325 326 327 328 328 327 325 328 330 328 328 327 327 329 328 328 325 325 329 326 323 325 327 331 325 313 307 305 304
318 318 317 315 314 312 312 313 313 314 313 313 314 314 315 320 318 312 311 309 310 317 316 315 316 317 317 316 318 319 319 319 316 316 318 317 317 321 318 317 322 326 324 322 323 321 317 316 317 319 318 318 323 319 314 315 314 318 331 332 329 331 329 329 329 327 332 330 325 324 322 323 328 326 325 326 325 325 324 325 331 334 335 332 318 307 305 303
318 318 317 315 315 313 312 312 312 314 314 313 314 314 314 320 320 315 313 310 309 318 320 319 318 317 317 317 318 318 319 320 317 317 320 319 318 319 318 320 321 322 324 323 323 321 321 322 321 317 315 318 325 325 319 315 314 321 333 330 329 333 329 329 329 326 329 326 318 318 319 322 325 324 325 326 323 324 323 320 324 329 330 331 323 308 303 303
319 318 317 316 315 313 312 312 312 314 315 314 314 316 317 318 316 315 315 311 313 318 320 321 320 318 318 319 319 318 318 320 318 318 319 319 319 318 318 321 320 321 325 322 320 323 324 323 319 317 317 319 323 325 323 322 319 322 327 328 331 332 331 333 329 323 325 324 315 314 320 323 325 326 325 322 321 325 324 318 317 320 321 323 319 308 303 302
318 318 317 316 315 314 313 312 312 314 315 314 315 318 319 317 314 314 313 310 317 320 321 321 318 317 318 321 321 318 318 320 318 319 320 319 321 321 320 321 318 322 329 324 321 324 324 323 321 320 321 321 320 321 326 325 320 319 323 327 329 329 332 336 334 330 331 328 317 314 321 327 330 329 324 321 322 323 323 320 315 314 313 311 309 306 304 302
319 318 317 316 315 314 313 312 312 315 314 315 318 319 318 315 312 313 312 313 323 324 321 319 318 319 320 321 322 318 319 321 317 318 321 320 321 321 320 320 317 321 326 322 322 324 322 326 326 320 318 319 318 321 325 324 321 319 322 326 327 328 330 329 326 324 326 326 322 319 322 326 327 324 318 317 321 321 320 317 316 318 312 307 307 307 304 301
318 317 317 316 314 314 313 312 313 315 315 317 321 320 318 316 312 313 314 317 324 325 320 320 322 323 321 321 322 318 318 321 319 319 321 320 321 321 319 320 317 318 319 318 324 326 325 328 322 315 317 318 317 321 321 322 323 321 320 325 323 320 325 327 321 316 318 324 326 323 324 324 324 323 318 317 319 319 318 317 319 319 313 309 309 307 303 301
317 316 316 316 315 314 313 313 314 315 315 318 321 320 318 317 315 316 319 319 320 322 321 321 322 324 322 321 322 320 319 321 320 320 321 320 321 322 319 321 319 317 317 318 324 326 326 329 320 314 320 315 311 319 320 316 320 323 324 324 319 317 324 329 327 323 323 327 326 323 324 324 324 325 321 318 319 319 319 319 318 317 314 312 309 305 303 301
316 315 316 316 315 315 313 313 314 315 316 318 319 319 318 317 315 315 320 320 319 321 320 319 318 321 323 322 322 321 319 321 320 320 322 320 321 322 319 321 321 317 316 318 322 323 322 325 321 314 318 315 311 318 321 315 314 321 325 323 321 327 329 326 328 330 329 329 329 325 323 321 321 322 321 321 323 324 323 319 317 316 315 313 308 304 303 301
313 314 316 316 315 315 314 314 315 315 318 319 318 318 318 317 315 317 321 320 318 319 318 317 316 319 323 322 322 321 319 320 320 319 322 320 321 322 319 319 321 318 316 317 320 324 321 322 324 314 312 315 315 319 323 320 315 315 318 318 320 326 327 326 327 328 329 331 331 328 325 324 324 324 324 322 321 322 321 321 322 320 315 311 307 304 303 301
313 314 315 315 315 315 314 314 315 317 318 318 317 316 316 316 315 319 323 319 317 318 316 316 316 319 323 321 320 322 320 320 319 319 321 320 320 322 319 319 322 319 317 316 318 323 321 320 324 317 311 316 320 320 322 322 318 317 319 320 319 320 322 325 325 323 327 332 332 330 328 325 326 326 323 321 320 318 318 321 325 321 313 310 308 305 303 301
313 315 315 315 315 315 314 314 317 318 317 316 316 316 315 316 316 319 321 319 319 319 315 315 317 319 322 321 321 322 320 320 320 319 321 319 319 322 320 319 323 319 317 318 318 321 322 322 325 321 316 319 322 319 316 318 320 319 320 321 320 319 321 324 323 321 323 327 329 329 327 325 327 326 322 321 324 321 318 320 321 317 315 315 311 305 303 301
314 315 314 314 315 314 314 316 317 318 317 315 315 315 315 316 317 319 320 319 320 321 319 319 319 318 320 321 321 321 321 321 320 319 321 320 318 320 320 319 320 318 317 319 319 319 323 325 326 324 320 319 318 314 311 315 317 316 319 322 320 319 321 324 326 324 323 323 322 322 324 325 323 324 324 323 323 321 318 319 319 317 316 317 313 306 302 301
313 314 313 314 315 314 315 317 317 317 316 314 314 315 316 316 317 318 320 319 319 320 321 322 321 319 318 320 321 321 321 321 320 319 321 320 318 319 321 320 318 318 319 321 321 321 322 324 325 326 325 321 319 315 312 313 314 316 319 322 321 320 320 323 325 324 324 324 321 321 324 323 318 320 322 319 317 317 317 317 319 320 318 316 313 307 303 302
313 312 312 313 314 314 316 318 317 315 315 315 314 315 315 315 316 318 319 319 318 320 320 320 321 319 318 321 322 320 321 321 320 319 319 321 320 319 321 321 318 318 320 321 322 320 321 324 325 327 329 326 323 320 316 314 315 318 321 320 319 320 320 321 322 322 324 324 322 324 326 322 321 322 319 317 319 321 319 316 317 319 318 317 314 308 303 302
313 312 312 312 313 314 316 317 316 315 314 314 315 314 314 314 314 316 317 317 318 320 320 320 321 320 319 322 321 319 320 319 319 320 319 321 321 317 317 319 318 318 319 320 319 318 322 326 324 324 328 328 327 326 323 319 316 318 320 318 318 319 320 321 321 321 323 323 322 324 324 322 323 323 317 318 322 323 323 322 318 316 314 313 313 309 304 302
313 313 312 311 312 314 316 315 315 315 314 314 314 313 313 314 314 314 315 316 317 318 319 321 322 321 321 322 320 320 320 318 320 323 320 321 323 318 315 316 318 318 318 319 320 320 324 326 322 323 326 325 325 327 325 321 319 319 320 318 317 318 319 320 321 322 323 322 321 322 322 322 323 322 320 322 325 325 326 326 323 321 317 312 312 309 304 301
311 313 312 312 313 314 315 315 314 314 314 313 313 312 312 313 313 313 314 315 316 317 318 319 320 320 321 321 320 321 320 319 320 322 321 321 321 317 313 313 316 317 317 319 321 322 326 325 322 324 325 322 325 329 325 320 320 320 319 319 318 318 318 319 322 322 322 323 323 321 320 322 321 322 323 325 326 326 327 329 329 329 323 314 309 307 305 303
310 311 312 312 313 314 314 314 314 313 313 312 311 311 312 312 312 313 314 315 315 317 318 319 319 320 321 321 321 321 321 321 321 320 320 320 319 317 314 313 314 316 317 319 319 322 325 324 322 324 324 322 325 327 323 321 321 320 319 319 318 317 318 319 320 321 321 323 323 323 323 322 319 319 320 324 327 325 324 326 325 322 320 315 310 310 309 305
309 310 310 310 312 313 312 312 313 312 312 311 310 310 311 312 312 312 313 314 315 315 318 318 318 319 320 320 321 322 321 322 322 321 320 320 321 320 318 317 316 315 316 319 319 319 322 322 322 323 323 322 323 323 321 320 320 320 319 319 318 318 317 318 319 320 320 321 321 323 325 322 318 319 318 319 323 321 318 320 319 318 322 322 317 315 312 307
308 309 309 309 310 311 311 311 311 312 311 311 310 310 309 310 311 311 312 314 315 315 316 317 317 318 319 319 321 322 321 321 321 321 320 320 320 319 319 322 322 317 314 317 318 317 319 322 323 321 322 323 322 321 319 319 319 320 319 318 318 318 317 317 318 318 319 320 320 320 323 321 318 321 321 319 318 316 316 319 320 320 323 322 319 317 313 308
305 305 306 309 310 310 310 311 311 311 311 311 310 310 309 309 310 311 311 313 314 314 315 316 317 317 318 319 320 321 320 320 321 321 320 320 320 318 318 319 321 318 314 315 317 317 317 322 323 321 322 323 322 322 319 317 317 319 319 319 318 318 318 317 317 318 319 319 320 320 321 320 319 321 322 321 319 318 319 320 320 320 320 319 319 319 316 311
304 302 304 307 308 309 310 310 311 311 311 310 310 310 310 309 309 310 312 312 313 314 314 315 316 316 318 318 318 319 319 320 321 320 320 320 319 319 319 317 317 318 315 314 317 317 317 320 321 321 323 323 323 323 320 317 318 320 320 319 318 317 317 317 317 317 317 318 320 320 320 320 322 322 321 321 321 320 320 319 318 319 318 316 316 317 316 313
Wind_Speed
5 4 4 4 5 4 5 6 6 6 5 5 5 5 5 5 4 4 3 3 3 3 4 5 6 6 7 8 7 8 8 8 5 3 3 2 0 2 3 4 4 5 5 5 5 3 3 5 9 9 5 3 5 2 3 3 3 5 4 4 3 4 4 6 7 7 5 2 5 4 2 7 3 2 2 0 5 4 1 3 2 4 2 2 2 1 4 12
6 5 4 3 4 5 5 6 5 5 5 5 5 5 4 4 4 3 3 3 3 3 4 4 6 6 7 7 7 8 8 7 3 2 3 1 2 1 3 4 5 5 6 6 8 7 4 4 7 7 6 3 3 3 2 2 4 4 3 3 3 6 5 6 8 7 3 1 5 3 1 5 5 3 2 2 3 3 0 3 4 5 4 2 0 2 8 14
6 5 5 4 4 5 5 5 4 4 5 5 4 4 4 4 4 3 3 3 2 2 3 4 5 6 7 7 7 8 7 4 2 2 3 2 4 3 4 5 5 6 7 7 7 7 5 1 3 5 5 3 2 3 4 4 2 3 4 3 4 6 4 4 7 7 4 3 6 3 1 2 3 3 1 2 1 1 4 5 1 3 7 5 3 4 10 13
7 6 5 4 3 4 5 4 4 4 4 4 5 4 4 4 4 4 3 3 2 2 3 4 5 6 6 7 7 7 5 5 2 1 3 4 5 4 4 5 6 7 7 7 6 6 5 3 4 5 4 3 4 4 4 4 1 2 4 3 5 3 1 3 6 6 4 3 5 4 3 0 3 2 1 5 3 4 7 7 7 8 9 8 6 5 9 12
6 6 5 5 4 3 3 4 4 4 4 4 5 5 5 4 4 3 3 2 1 1 2 3 4 5 6 6 6 6 4 5 1 1 3 4 5 4 4 5 7 7 7 7 5 5 5 4 6 6 5 3 5 5 2 3 2 3 1 3 4 3 1 2 5 4 4 4 5 5 3 2 1 1 3 8 5 6 6 6 8 8 8 10 9 8 9 11
6 6 5 4 4 3 3 4 3 3 4 4 4 5 5 4 4 3 3 2 1 1 2 3 4 5 5 6 6 5 4 2 3 2 4 4 4 3 4 6 7 7 7 7 5 4 4 6 7 5 4 3 3 3 1 4 2 3 1 1 3 3 0 1 2 3 5 6 5 4 3 1 2 2 2 7 8 7 4 5 6 6 7 11 11 10 8 8
6 6 5 5 4 4 3 4 4 3 4 4 4 4 4 4 4 3 3 2 1 0 1 2 4 4 5 5 4 5 4 1 3 4 5 4 3 2 4 6 7 7 7 6 6 4 4 7 6 3 4 4 0 2 1 5 4 5 1 1 2 3 2 1 2 3 4 5 4 3 2 2 3 3 0 4 9 4 3 3 1 3 8 12 10 8 7 8
7 6 6 5 5 4 3 4 4 3 4 4 4 4 4 4 4 4 3 3 2 1 0 2 3 3 4 4 2 4 2 2 2 6 7 4 3 2 4 6 7 6 7 9 7 3 4 6 3 4 4 2 2 2 3 3 5 5 2 2 1 1 4 3 3 4 2 1 1 2 1 3 5 3 1 7 8 1 2 4 6 7 9 9 7 6 6 8
7 7 6 5 6 4 3 4 4 4 4 4 3 4 4 4 4 4 3 3 2 2 0 1 2 3 4 3 5 3 3 2 2 7 7 5 3 1 3 5 6 6 7 9 7 4 3 1 2 3 3 2 3 2 3 2 1 1 2 1 1 2 5 3 2 3 1 1 2 2 3 4 2 1 4 8 5 2 3 5 5 6 7 5 5 5 6 7
8 7 6 5 5 3 2 3 3 3 3 3 3 3 4 4 4 4 4 3 2 2 0 0 1 3 3 3 6 1 3 2 2 7 7 5 3 0 2 4 5 5 6 7 8 7 4 4 3 3 5 3 3 2 2 2 1 2 3 2 2 3 5 2 0 1 1 2 2 4 5 4 3 1 4 6 3 4 5 5 3 5 6 5 4 4 6 7
9 7 7 5 4 3 2 1 1 1 0 1 2 3 3 4 5 5 4 3 3 2 1 0 1 2 3 5 6 3 3 2 3 6 6 5 3 1 2 3 4 5 6 7 8 7 5 6 6 5 2 1 2 2 2 1 3 1 2 2 3 6 4 1 1 3 1 2 5 6 4 4 4 1 7 5 3 5 6 6 3 4 5 4 4 4 5 7
9 8 7 6 4 3 2 2 2 1 1 1 1 2 2 4 6 5 5 4 3 2 1 1 2 2 3 5 3 5 2 1 3 5 5 5 4 2 3 4 4 6 5 6 6 6 6 4 6 5 1 2 2 2 1 1 3 1 3 1 6 8 5 3 2 2 1 2 5 6 2 4 3 7 8 3 4 4 5 6 4 5 5 4 4 3 4 6
9 8 7 7 5 3 2 2 1 1 1 2 2 1 1 4 5 5 5 4 4 3 2 2 2 2 4 1 3 4 4 1 3 5 6 5 4 4 4 4 4 6 6 8 6 7 6 2 6 6 2 4 2 0 3 4 3 1 4 2 4 7 6 5 2 2 2 3 2 4 3 6 7 11 8 2 6 6 5 6 6 5 5 4 4 3 4 6
9 9 8 7 6 4 3 2 1 0 1 3 3 2 1 2 5 4 4 4 4 4 2 3 2 3 4 2 3 3 5 4 3 5 6 6 6 5 5 4 4 6 7 8 7 7 7 5 8 7 3 4 2 1 4 6 4 2 2 2 3 2 5 7 1 3 4 1 2 4 3 7 9 10 5 3 7 7 7 8 6 6 5 5 4 4 5 5
10 9 8 7 7 5 5 4 2 1 1 3 3 3 2 1 3 3 4 4 4 4 3 4 3 4 3 3 3 2 5 5 5 7 7 7 7 6 4 4 5 6 6 7 8 8 7 6 7 6 1 2 3 4 4 4 4 3 1 3 3 2 5 9 3 5 4 1 2 5 3 7 9 9 5 3 6 6 8 8 6 7 6 5 5 5 5 5
11 9 8 7 7 5 4 3 2 3 2 3 3 3 2 3 4 4 5 5 5 5 4 4 3 5 3 2 2 3 5 5 6 8 8 8 7 6 6 6 6 7 6 7 7 6 7 7 5 3 1 2 5 5 4 4 4 4 1 3 2 2 3 6 3 3 1 1 0 3 3 4 5 5 5 1 6 6 7 7 8 8 7 6 5 5 5 5
11 9 7 6 7 6 5 3 2 4 3 3 4 5 5 5 5 5 6 8 8 6 5 4 4 5 1 2 2 4 3 4 6 8 9 7 6 7 7 6 6 7 7 6 5 4 7 6 2 1 3 3 3 5 4 2 4 4 1 2 3 3 2 3 4 3 1 1 3 4 4 6 7 5 3 2 6 5 8 10 9 7 6 6 5 5 6 6
10 9 7 6 6 7 6 5 3 3 2 3 6 8 9 8 6 7 10 10 9 7 5 3 4 3 3 3 2 2 2 5 7 9 9 8 7 7 7 6 6 7 6 5 4 4 4 4 2 1 3 3 2 5 3 4 4 3 2 2 2 2 2 3 5 2 2 1 3 3 5 10 13 10 5 5 6 7 10 10 7 6 7 6 6 7 6 7
10 9 7 6 5 6 6 6 4 3 2 4 9 12 11 8 7 7 8 7 5 3 1 3 3 3 4 3 1 3 6 7 8 8 8 9 9 9 9 8 6 6 5 2 2 2 2 3 4 3 1 3 4 7 8 7 6 6 5 4 4 4 3 5 6 5 3 2 4 7 8 10 12 12 10 6 6 8 10 8 6 6 6 7 7 7 8 9
10 9 7 6 6 4 5 6 5 4 2 5 11 10 7 5 4 1 1 1 3 4 2 3 4 3 0 1 1 7 8 6 4 5 8 10 11 11 7 6 6 6 3 3 1 1 3 3 2 4 8 9 9 8 6 5 6 5 5 4 3 4 4 5 4 5 2 3 6 8 8 10 10 12 12 5 5 7 10 9 9 9 8 8 9 10 10 9
10 10 8 7 6 5 4 6 7 4 2 6 10 6 3 3 3 1 3 4 7 6 3 2 1 1 0 1 5 7 5 3 3 3 9 10 12 10 1 3 5 2 1 3 3 2 4 4 7 10 9 7 6 6 5 5 5 4 4 2 3 3 5 7 4 4 1 3 6 5 7 12 11 12 12 4 4 9 11 11 12 12 11 9 10 11 10 6
11 10 9 8 7 5 4 6 9 4 3 6 7 4 1 3 4 2 2 1 8 9 8 2 2 3 3 2 6 5 3 3 2 1 8 8 6 5 1 4 5 3 1 2 3 2 2 4 11 10 4 5 4 5 6 4 4 3 3 2 4 3 4 7 5 4 2 3 5 5 6 11 10 10 11 8 8 10 11 12 13 13 12 11 11 11 9 8
13 11 10 9 9 6 3 8 10 4 5 6 5 3 3 4 6 4 3 1 5 5 5 6 4 5 3 1 6 7 2 4 4 4 9 8 3 3 5 5 5 4 3 4 5 4 2 6 10 6 7 6 4 5 7 5 2 2 3 2 3 3 2 4 5 4 2 1 3 5 7 9 9 8 10 13 12 9 10 12 11 11 12 12 11 10 11 12
15 13 11 10 11 7 3 9 8 5 8 7 7 7 5 6 6 3 2 1 4 4 3 7 6 5 6 4 9 10 2 3 5 5 12 11 5 3 5 5 5 5 4 8 8 6 5 5 2 5 7 7 5 4 7 5 2 4 5 6 4 4 6 6 4 5 4 2 3 4 8 8 7 9 11 9 5 6 8 9 11 13 12 10 9 9 12 13
16 15 13 12 12 7 6 9 7 9 10 7 10 11 7 6 5 4 2 2 3 5 3 4 3 6 10 7 10 10 2 3 4 6 14 14 8 4 3 3 4 5 7 6 5 5 7 5 3 7 4 6 6 4 5 7 4 5 5 9 10 8 8 5 3 5 4 4 4 4 5 7 3 5 10 6 4 6 7 7 13 15 10 9 9 9 10 10
18 17 15 15 13 10 8 6 7 11 11 7 11 11 9 6 5 5 4 3 4 4 0 3 3 7 11 8 9 7 2 4 4 6 14 14 9 5 3 2 2 4 7 4 2 3 3 2 4 7 5 6 6 4 6 7 5 4 5 8 10 7 5 4 1 1 1 5 3 3 1 7 5 4 9 7 5 9 8 8 13 13 8 8 10 8 8 9
21 19 18 17 16 15 9 5 10 13 8 7 10 12 12 8 4 2 3 3 5 3 4 2 1 6 9 9 11 8 3 5 2 5 9 10 6 3 3 5 2 2 4 4 2 3 3 2 4 6 6 6 6 4 6 8 7 4 4 5 7 7 6 5 4 3 3 3 3 3 3 5 9 6 7 8 8 9 11 13 16 12 8 9 8 8 9 10
23 22 20 20 19 18 11 7 13 14 7 2 7 16 16 10 6 2 4 0 5 3 5 1 1 3 3 6 9 7 2 2 5 2 1 6 5 3 2 7 6 6 5 5 4 3 4 6 6 7 5 4 6 5 8 11 6 5 2 5 6 6 5 4 5 3 1 3 4 1 4 3 10 5 0 2 6 8 11 16 18 12 7 8 8 9 9 10
25 24 23 22 21 19 13 10 12 13 11 6 11 20 17 11 7 4 5 3 3 2 2 1 2 1 3 5 4 2 2 1 2 2 2 4 3 3 3 7 6 7 4 4 6 2 1 5 8 8 5 6 4 1 6 11 5 4 6 7 6 5 5 5 4 3 3 2 4 5 5 2 10 6 3 2 3 8 12 13 13 9 5 6 8 8 8 8
27 26 25 24 23 23 18 14 12 11 12 9 12 19 16 7 4 4 2 4 1 1 1 2 2 1 7 9 2 2 3 2 0 2 3 1 2 5 2 3 6 5 1 3 4 3 1 1 2 4 4 5 4 3 1 5 5 6 6 6 7 5 5 4 2 4 2 5 5 8 10 6 7 5 4 3 4 7 9 9 9 7 5 6 6 6 7 6
30 28 28 28 28 27 19 15 16 13 10 11 14 16 11 3 3 4 5 3 1 1 2 1 1 4 11 12 5 2 2 2 1 5 4 2 2 3 1 2 4 3 1 4 4 3 3 1 1 2 2 4 6 5 4 3 4 5 4 5 4 4 4 4 4 4 1 5 2 4 6 7 8 6 2 5 6 5 7 7 8 7 6 6 5 5 6 6
33 31 31 32 31 29 20 15 20 17 10 13 16 11 5 2 1 5 5 0 1 4 5 3 3 6 10 8 6 6 4 2 3 6 6 4 5 5 6 6 5 2 2 6 3 3 2 4 2 2 1 4 6 5 4 4 2 3 4 6 4 2 2 2 3 0 3 6 2 1 0 4 10 8 4 9 11 9 9 8 8 7 7 6 5 6 5 6
36 33 34 35 33 33 24 17 22 19 12 17 15 4 2 4 6 9 8 3 2 2 3 4 2 6 10 7 4 4 3 1 5 4 3 5 6 7 6 5 5 3 2 5 3 1 3 5 1 2 2 3 8 7 3 1 3 5 6 6 5 2 1 3 3 1 4 5 3 1 1 4 7 5 8 16 15 10 8 8 8 8 8 7 5 5 6 6
37 35 36 38 36 35 28 21 23 23 19 18 10 3 4 7 8 11 13 8 1 2 3 4 5 6 7 5 4 5 4 3 6 5 2 5 5 6 6 6 6 3 3 3 3 5 5 6 4 7 3 6 11 9 6 6 5 6 4 5 5 5 4 4 4 4 4 4 3 2 2 4 3 3 8 11 9 7 6 6 6 7 7 5 3 5 6 7
35 38 38 37 35 34 31 25 25 27 22 15 7 5 9 9 8 12 13 6 2 2 3 3 6 6 4 2 3 5 4 2 5 5 3 6 6 7 7 8 11 7 4 4 3 3 4 7 6 3 1 9 11 5 5 7 3 3 2 4 3 5 5 2 3 5 2 3 3 2 4 5 4 7 9 8 8 8 7 6 5 7 7 3 3 5 7 8
35 38 35 34 35 36 35 29 28 29 20 10 7 8 9 10 9 8 6 5 5 6 6 3 4 5 5 2 2 5 2 2 5 4 3 4 4 7 8 8 11 12 9 7 2 2 3 5 5 3 2 4 5 2 3 3 3 2 3 4 4 4 6 3 2 1 3 3 4 3 6 6 4 8 10 9 12 11 8 7 7 8 5 4 6 7 7 8
34 31 27 29 34 38 38 34 33 30 16 7 10 10 9 12 10 4 2 3 5 9 9 4 3 5 6 4 4 7 3 2 4 5 4 3 3 7 9 5 7 15 15 7 2 3 4 3 4 1 1 3 1 3 3 3 3 5 4 6 3 2 3 3 2 2 3 4 5 2 7 6 3 6 4 1 7 11 11 11 10 8 5 6 8 7 8 8
18 14 13 22 32 38 39 39 36 26 11 7 10 9 8 13 12 5 1 2 5 9 8 7 6 6 7 7 5 7 6 4 6 6 4 4 5 8 11 5 5 15 16 8 2 3 3 3 4 1 3 3 3 3 2 5 2 5 4 5 4 2 2 2 2 2 1 4 5 2 4 5 6 7 3 2 8 11 13 10 9 9 9 9 8 7 8 7
5 1 3 14 26 34 41 41 30 15 7 9 10 9 9 13 11 4 1 1 2 6 8 9 7 4 5 8 5 6 9 8 8 7 5 5 6 6 12 10 6 11 14 11 6 2 3 3 4 1 1 1 2 2 4 1 2 3 2 3 2 2 3 3 3 3 3 2 4 3 4 5 6 6 7 11 12 12 11 8 7 11 11 9 7 7 8 8
5 1 1 9 22 33 42 36 17 6 7 9 9 10 10 11 8 4 4 3 1 3 6 8 7 5 5 7 5 5 8 7 8 8 5 7 6 5 9 10 5 5 10 12 8 2 3 3 4 2 3 1 3 4 9 10 7 4 4 5 3 1 1 1 1 2 3 2 2 3 7 9 5 4 8 11 10 10 10 9 9 9 7 6 7 7 8 8
4 2 1 10 25 35 35 21 6 5 7 7 9 11 10 7 4 4 6 4 1 2 2 3 5 5 5 6 4 3 6 5 6 7 5 7 8 6 7 10 10 8 7 8 8 5 4 3 4 2 1 4 5 4 6 8 8 8 8 9 10 6 4 2 3 2 3 2 4 3 8 13 6 5 7 8 7 8 7 8 9 7 5 6 7 8 8 8
3 3 1 11 31 35 22 8 4 7 7 7 9 8 5 3 3 4 5 5 3 3 1 2 4 5 5 6 5 5 7 5 6 7 5 9 11 8 7 10 13 14 11 8 8 7 4 3 2 3 4 6 6 3 2 2 1 2 3 5 6 6 6 6 6 4 3 2 2 4 5 13 5 4 5 6 6 6 5 6 7 6 5 6 7 8 8 7
2 3 2 11 34 32 13 6 8 7 7 7 8 5 2 3 5 4 4 7 7 5 4 3 2 5 5 4 5 6 8 6 8 10 8 8 11 7 6 10 12 14 10 5 3 2 3 3 3 3 3 3 4 3 2 3 3 1 1 2 5 8 9 7 4 4 4 5 4 4 7 12 2 2 3 4 4 5 5 6 6 7 5 5 6 6 6 6
1 2 2 11 32 28 9 5 8 8 8 7 7 8 5 2 4 6 7 10 9 5 6 7 4 5 5 3 5 8 10 7 8 13 10 6 7 4 8 13 13 12 9 6 6 6 4 4 4 2 2 4 3 2 1 1 1 3 4 5 8 11 9 2 1 3 2 9 11 6 11 11 2 2 2 2 4 6 7 6 6 7 6 4 5 5 6 6
2 2 1 7 20 17 6 3 5 6 10 10 9 11 10 5 4 8 8 8 7 5 6 7 5 4 3 3 4 7 11 11 10 10 9 6 4 2 5 13 13 12 9 4 7 9 6 6 7 6 7 9 8 6 5 4 3 2 4 7 9 12 12 7 3 3 7 10 10 10 14 8 3 4 4 4 5 7 7 6 5 7 6 4 5 5 6 6
2 2 1 3 6 7 5 3 3 3 6 9 8 8 12 10 6 6 6 5 6 7 7 5 2 4 4 5 5 6 10 14 10 4 5 7 4 2 3 10 13 13 7 5 6 6 3 3 10 13 13 15 14 8 4 8 7 8 11 14 14 15 16 11 6 8 10 4 6 16 21 12 5 4 5 6 6 6 7 6 6 7 6 5 5 5 5 5
2 3 4 4 3 4 5 4 5 5 4 7 5 4 10 14 8 4 6 8 7 7 8 6 4 5 6 7 8 9 9 11 9 5 6 7 3 2 0 4 8 10 6 4 5 6 3 4 12 17 19 20 16 8 8 13 14 16 17 17 17 17 16 14 14 16 9 5 11 20 18 16 16 9 8 9 7 6 8 8 7 6 5 5 5 4 5 6
2 2 2 2 2 5 7 6 7 7 6 6 4 2 6 12 11 7 7 8 7 6 5 5 8 12 13 12 11 10 9 8 8 8 9 7 3 0 0 1 5 8 7 5 5 5 4 7 12 15 19 22 15 7 10 13 13 15 18 19 20 19 19 20 24 23 13 10 18 13 10 18 22 14 11 11 8 9 10 7 5 4 3 4 5 5 6 7
2 1 2 1 0 4 7 8 8 9 9 7 4 4 4 9 13 11 6 4 5 8 8 9 14 16 17 16 12 10 10 9 9 10 11 9 5 4 3 3 4 5 7 6 5 3 4 7 12 12 14 20 17 9 10 12 10 11 15 19 20 21 24 26 27 26 19 20 24 10 6 18 19 12 13 13 11 9 5 2 3 4 4 5 6 7 8 9
2 1 1 1 0 2 2 4 6 7 9 7 5 5 5 8 12 10 6 6 6 8 10 15 19 16 15 16 14 13 13 13 14 14 11 11 9 6 6 6 4 4 7 7 4 3 5 7 9 7 7 15 17 12 10 10 10 10 12 15 18 22 27 28 25 21 17 22 24 12 11 19 11 9 11 9 7 5 3 5 7 7 7 6 7 8 8 9
4 1 1 1 1 3 3 3 5 5 6 7 7 6 5 9 13 8 5 7 9 8 9 15 21 15 10 13 15 17 17 16 17 15 9 10 10 6 6 4 3 5 8 7 4 4 6 4 2 4 6 13 16 14 12 9 7 8 11 15 22 25 24 21 20 18 18 20 19 11 14 16 4 8 8 6 5 7 8 10 9 8 9 8 8 10 10 10
7 1 2 1 2 4 4 3 5 6 5 6 9 10 8 10 11 8 3 4 9 12 10 11 14 10 8 14 17 16 15 12 11 9 4 5 7 5 3 3 4 6 8 7 2 3 6 5 3 5 8 13 15 13 11 7 4 8 14 23 28 25 17 14 16 19 20 19 14 14 20 15 4 7 8 7 7 10 11 10 10 10 10 9 9 10 10 10
Wind_Direction
195 194 199 197 186 185 191 202 205 199 202 207 208 208 202 201 207 209 221 243 266 293 321 330 339 342 341 341 343 346 344 341 330 344 6 318 296 41 41 42 30 18 22 16 22 43 32 20 2 15 69 63 12 346 16 25 59 55 80 95 141 176 195 186 177 191 172 193 209 221 181 137 179 245 155 326 31 53 21 358 324 323 322 233 257 244 164 154
200 198 199 202 196 193 193 202 203 195 200 207 210 210 203 198 204 209 218 244 269 296 325 331 339 340 341 344 344 348 347 344 340 10 11 262 210 97 70 51 36 26 29 38 42 49 51 354 344 22 53 48 352 345 29 14 57 83 109 99 195 194 200 192 174 186 167 135 180 184 178 154 181 178 127 218 314 20 104 295 348 338 298 257 242 131 152 156
205 205 202 202 204 202 195 191 190 196 202 202 204 205 198 194 199 208 219 241 266 303 329 334 337 339 344 342 346 351 348 5 26 12 31 128 152 121 84 56 40 36 35 43 42 41 62 13 1 44 51 55 1 358 39 7 25 126 109 92 229 209 218 212 180 192 202 154 150 158 169 181 214 173 130 191 197 359 222 231 243 269 249 225 223 139 150 161
208 209 205 204 207 207 199 186 182 194 200 200 201 197 188 188 194 205 220 232 264 317 329 335 335 340 344 341 353 349 356 44 29 341 89 119 130 113 80 52 37 38 36 40 41 41 62 78 58 57 61 47 342 18 48 347 350 103 104 151 218 186 184 213 193 201 203 159 140 141 127 184 239 176 152 148 145 276 246 225 201 213 215 198 209 174 160 165
213 213 205 206 207 208 207 193 185 186 193 196 199 192 181 189 197 202 215 224 255 328 334 336 338 343 343 347 356 342 14 55 305 212 118 132 126 106 72 40 25 29 31 33 32 44 55 54 58 48 51 43 348 27 38 321 66 68 65 179 193 155 105 198 188 180 155 124 105 115 144 185 174 158 162 155 185 239 232 234 216 215 201 181 181 171 162 164
215 220 209 210 206 204 217 206 192 184 195 196 191 186 181 189 191 197 207 206 225 329 337 337 344 344 344 352 353 360 63 77 268 186 159 156 129 99 62 28 17 17 18 31 28 43 49 35 54 49 45 52 7 49 18 313 43 92 359 284 203 191 56 60 159 172 131 116 135 156 187 126 91 271 192 169 216 228 237 263 238 239 201 166 156 156 159 163
215 222 217 214 206 206 222 214 201 191 198 194 184 182 181 182 182 194 195 181 187 204 343 339 346 344 353 358 355 33 76 247 262 179 188 170 142 100 48 17 15 10 11 35 32 62 70 42 65 112 80 66 51 83 4 316 32 88 103 313 199 195 252 334 85 150 127 124 186 184 133 127 165 233 41 210 240 245 306 316 173 175 152 145 142 149 159 159
215 222 223 215 203 209 228 214 202 200 199 192 187 182 180 180 182 188 185 179 172 168 311 340 349 354 1 11 47 34 18 269 222 180 191 178 160 87 34 14 19 16 36 46 35 106 90 51 102 152 81 70 169 94 351 333 26 63 131 247 148 191 279 308 70 102 110 113 197 122 164 227 193 184 310 247 249 254 46 60 92 113 119 132 139 148 152 150
220 221 222 219 207 217 234 213 200 199 195 185 189 190 188 185 184 184 185 183 163 170 225 358 344 11 16 45 81 45 294 280 199 184 185 184 177 61 12 18 26 26 56 49 37 84 88 107 183 179 145 148 131 78 347 28 2 103 144 226 45 350 320 329 75 73 40 308 69 121 264 281 248 229 270 252 230 145 99 79 87 112 117 132 138 155 157 153
217 218 216 222 208 209 229 210 194 187 183 183 190 201 198 186 182 181 181 183 164 166 137 5 351 45 53 66 81 75 279 329 205 188 182 186 180 118 7 20 25 38 65 55 48 58 75 167 174 143 138 121 104 73 347 69 127 139 118 114 67 342 320 16 349 353 26 259 174 189 256 292 337 324 255 260 192 147 110 97 97 121 139 157 148 166 167 166
210 212 213 218 202 186 185 175 137 115 191 204 198 208 205 186 178 180 179 176 162 145 120 42 29 62 69 75 104 190 274 13 190 185 183 186 173 150 41 35 38 63 73 65 61 56 74 146 142 121 117 102 113 43 355 102 111 96 108 134 354 341 315 5 299 288 280 238 182 172 246 295 360 264 233 249 181 159 136 144 153 146 168 178 171 178 174 180
206 208 209 212 198 173 166 169 151 124 350 332 238 226 204 184 178 178 175 164 155 140 122 67 50 81 69 63 136 209 251 46 182 184 186 186 160 130 70 58 58 66 76 79 74 58 68 126 113 91 336 150 129 39 68 93 81 36 68 128 314 355 343 287 287 284 188 206 176 152 282 284 230 225 240 248 159 146 140 170 191 186 198 195 188 189 187 192
205 205 206 209 202 182 169 176 150 132 19 8 326 279 199 184 176 174 173 162 150 138 128 94 65 76 80 53 230 220 237 236 191 187 185 182 154 121 84 80 70 61 71 87 85 61 61 100 101 99 119 105 108 191 106 49 46 331 40 66 322 1 333 290 5 36 155 178 162 145 273 273 244 246 257 217 154 141 157 200 210 209 215 207 202 197 205 203
213 207 204 210 208 202 196 190 166 137 37 18 7 10 18 179 173 169 163 157 145 134 119 104 99 81 83 247 256 250 247 238 204 194 187 184 156 124 103 89 74 63 66 79 78 61 66 96 98 96 86 82 117 93 42 12 22 23 13 39 17 9 282 292 344 118 151 191 95 130 234 268 266 268 267 191 170 163 190 215 213 218 222 214 215 206 218 215
223 215 206 210 212 212 208 202 207 193 79 34 32 33 21 134 160 151 145 146 131 123 115 106 113 93 66 287 276 288 255 234 209 199 188 182 163 132 116 103 82 73 69 74 79 72 72 87 82 74 22 8 64 70 28 354 15 35 321 307 355 168 267 305 283 162 156 334 72 135 221 273 270 274 282 196 183 186 207 221 217 222 222 216 223 214 225 231
227 226 216 211 212 219 217 218 201 144 110 54 56 57 65 119 130 126 134 124 111 114 106 100 108 101 85 277 281 291 252 219 203 191 181 178 169 142 122 109 80 74 80 81 89 81 56 56 60 62 128 51 68 82 46 14 349 357 89 246 267 170 275 316 304 211 194 23 77 192 229 276 269 282 317 207 188 203 225 236 227 224 223 217 220 217 223 231
230 238 238 221 214 218 218 216 158 119 105 77 89 96 100 112 116 120 123 109 103 102 94 108 111 97 117 243 249 270 231 185 185 176 169 160 153 143 125 102 76 80 82 77 83 65 31 39 64 342 49 60 86 97 58 346 287 313 27 236 242 193 210 298 312 300 50 110 225 232 236 253 262 277 313 188 187 203 231 240 232 225 224 218 216 218 222 218
228 235 242 235 218 213 217 211 173 129 108 97 107 110 105 106 112 121 125 116 100 79 70 102 97 79 265 240 206 226 135 148 163 159 156 144 135 135 118 95 88 81 60 45 46 39 18 25 60 49 27 11 64 105 143 226 213 200 189 201 252 237 213 252 286 283 128 187 230 225 247 256 267 275 255 205 187 199 229 241 242 232 222 218 218 218 219 217
222 227 232 238 233 222 219 210 177 154 125 107 119 114 103 95 99 117 128 123 113 103 171 218 142 139 225 246 196 102 100 126 145 151 147 138 131 117 100 89 86 81 74 63 359 20 58 48 61 89 218 241 194 168 192 201 160 160 174 155 184 226 249 235 251 264 202 205 240 225 238 250 260 269 261 230 189 206 239 252 257 243 223 218 219 220 217 216
218 223 225 232 249 257 228 207 164 152 155 132 133 120 104 90 71 55 209 190 203 161 156 230 194 156 146 312 108 112 108 106 120 151 145 144 137 113 79 53 58 57 91 154 206 9 92 111 142 195 215 216 203 190 180 151 123 119 130 137 190 211 268 259 253 284 224 186 251 232 236 253 253 262 265 239 175 221 247 251 251 241 227 222 218 220 216 215
217 219 222 223 237 266 245 194 149 141 186 160 149 130 137 154 114 244 249 262 254 224 205 251 170 205 284 170 163 140 119 68 43 134 149 153 143 130 56 33 82 54 280 168 150 42 81 142 218 223 215 203 189 169 137 116 98 87 129 192 258 212 249 257 243 297 284 183 265 265 256 260 252 255 266 250 178 229 236 233 243 238 230 226 220 221 211 202
221 219 218 218 219 247 257 174 149 158 215 181 163 135 153 157 112 124 147 272 269 239 217 221 25 272 256 188 185 159 81 72 55 203 164 148 140 162 177 79 127 182 250 127 114 45 65 216 236 227 158 99 107 133 131 125 105 87 114 188 266 246 268 275 275 327 357 189 272 306 284 267 259 256 262 253 229 237 234 227 235 235 231 228 220 216 202 192
225 219 215 216 208 229 254 167 153 178 214 194 184 157 119 119 99 80 112 77 296 257 204 204 221 232 221 237 198 172 129 159 169 228 185 149 125 178 138 119 147 139 135 170 159 158 188 248 246 203 133 117 91 96 114 110 117 158 158 187 244 247 262 276 292 332 352 209 274 307 292 274 266 260 255 247 238 244 247 240 243 239 233 233 222 208 198 196
224 219 217 212 202 218 222 167 160 205 216 219 226 198 123 114 111 84 103 32 296 280 228 209 208 197 193 202 183 172 181 187 167 199 186 158 125 152 151 147 135 120 185 198 182 192 221 251 249 128 147 158 125 101 128 141 240 235 204 200 214 219 220 237 289 325 334 348 12 339 300 275 250 248 251 252 257 269 256 247 253 246 235 235 228 210 202 198
222 219 217 207 201 204 182 171 189 214 205 222 234 207 151 125 107 92 97 25 288 289 304 218 205 204 197 173 164 165 140 229 216 191 179 165 143 142 168 144 124 171 203 191 189 242 251 238 118 106 134 149 137 153 172 170 213 267 229 205 211 215 222 245 333 3 351 322 349 18 301 279 262 245 257 273 308 280 254 237 247 249 238 225 225 217 202 195
221 219 213 204 199 187 175 186 209 201 191 222 230 197 169 153 101 98 98 38 281 267 267 181 179 192 187 160 151 138 85 256 246 158 165 171 158 123 142 146 76 194 189 154 188 250 245 216 108 121 139 148 159 202 216 179 169 266 247 204 208 202 203 229 207 61 274 261 299 58 234 279 287 232 240 251 260 270 268 254 251 250 237 221 222 216 197 190
221 218 211 204 197 186 179 182 184 175 174 243 229 187 178 171 137 123 82 24 279 202 143 199 194 166 172 167 155 134 184 236 108 126 161 171 176 76 126 173 110 194 175 122 239 254 163 130 88 120 125 140 170 214 218 171 151 239 249 168 172 174 193 202 175 194 240 266 317 49 115 280 283 246 226 225 230 268 277 266 262 254 232 224 224 212 198 193
221 218 210 203 200 196 190 168 171 174 174 225 187 176 178 175 172 131 88 206 277 135 130 246 159 130 129 159 154 129 213 197 118 187 199 148 177 48 134 196 169 183 177 144 217 270 140 163 174 156 138 166 195 216 187 157 158 246 204 126 138 150 164 141 135 186 311 354 308 282 130 261 278 266 8 225 218 249 261 255 259 259 232 220 222 214 202 196
221 216 210 204 201 203 204 186 177 193 200 162 151 170 172 174 177 76 76 208 264 93 123 119 125 82 78 141 159 84 46 45 127 223 23 123 169 53 161 199 149 162 196 184 212 263 115 190 189 158 159 199 204 260 178 161 180 208 129 99 81 81 82 81 107 123 52 318 243 209 167 227 277 258 112 80 196 227 244 247 257 265 248 227 222 218 206 193
219 214 209 201 196 198 202 206 200 198 198 175 159 167 161 156 150 93 143 224 243 105 122 121 157 164 141 148 186 357 81 45 82 105 55 108 51 36 133 155 94 126 222 303 249 253 311 260 192 157 173 185 136 63 139 154 151 139 112 76 58 42 41 52 49 83 55 278 226 195 185 180 277 275 147 176 208 213 229 248 270 284 277 249 229 216 204 188
217 213 207 199 196 193 191 210 208 189 188 179 159 156 150 101 79 148 200 239 358 169 130 143 185 137 152 157 171 196 121 50 148 139 131 141 82 54 100 118 78 83 345 291 280 309 328 317 243 221 167 128 102 69 27 56 108 113 95 86 76 360 9 26 354 52 178 261 237 214 198 178 237 258 200 246 265 236 220 234 259 273 275 259 235 212 196 183
215 212 207 200 199 194 189 204 198 184 185 172 152 148 153 104 135 211 223 341 293 206 157 163 189 155 162 166 173 176 144 108 176 161 152 147 161 179 189 188 163 123 263 239 252 336 279 229 249 305 198 144 118 89 36 13 34 93 100 109 104 342 346 344 316 48 229 259 279 314 299 213 242 251 252 265 267 248 228 227 236 247 259 260 235 208 185 171
214 210 205 202 200 195 193 198 191 183 176 161 148 123 120 157 197 217 218 202 227 230 127 113 121 148 158 164 185 167 121 168 182 169 157 145 172 206 222 220 182 155 199 191 182 235 270 293 304 150 258 192 161 158 159 201 191 164 145 142 144 144 195 250 267 275 266 271 289 325 177 250 273 272 236 244 252 247 232 232 235 237 249 260 238 198 178 175
214 207 203 203 202 198 196 195 190 182 166 153 144 111 158 191 208 209 215 216 216 10 44 100 111 129 157 171 203 172 147 220 178 148 146 145 166 212 226 236 214 166 101 137 176 184 219 281 207 176 211 188 184 191 164 138 162 184 158 144 161 163 175 212 212 222 259 287 299 285 205 208 234 262 237 241 264 275 252 245 249 251 254 264 240 179 176 188
215 206 202 200 200 200 196 191 189 180 164 149 148 168 181 202 211 212 217 203 141 37 24 69 106 126 186 274 284 194 166 213 177 143 161 171 186 201 194 207 203 174 136 176 214 161 200 266 241 220 225 171 184 200 115 107 139 219 126 120 188 186 164 183 203 181 179 303 292 230 227 221 217 264 265 258 275 271 255 257 260 260 256 236 214 192 190 197
210 202 201 196 197 199 193 188 184 177 167 151 164 185 197 209 210 212 206 160 157 141 108 83 84 127 200 233 269 226 185 107 159 156 196 202 221 208 199 212 195 182 181 182 185 138 169 278 288 340 358 174 187 184 119 132 182 168 136 176 207 169 133 127 254 100 91 267 267 195 245 284 308 278 261 244 257 261 259 261 248 250 248 211 216 210 203 202
204 198 198 196 199 199 192 187 180 173 170 174 186 194 202 214 217 204 154 134 143 136 133 172 183 158 188 194 206 212 194 101 161 182 198 190 249 213 203 231 187 189 198 181 177 196 168 258 297 75 197 262 303 116 70 21 118 128 176 202 168 97 95 105 237 345 52 255 267 206 246 280 287 274 291 213 252 259 257 250 242 244 235 220 226 216 209 207
199 195 202 205 203 197 190 187 179 169 169 187 202 216 211 219 225 211 127 90 126 148 169 203 196 169 180 190 198 187 177 176 176 190 190 181 244 210 186 207 201 197 200 175 197 241 150 236 297 60 196 290 12 124 89 0 60 129 181 191 131 146 217 118 174 230 195 249 279 271 266 268 218 231 279 200 219 239 249 249 245 243 231 225 226 216 213 206
168 117 245 212 203 196 188 184 177 171 181 184 197 217 218 225 228 216 246 265 159 174 193 212 205 176 177 179 169 169 185 188 170 180 191 186 233 212 179 191 204 197 191 173 188 230 128 204 269 345 241 316 24 165 179 211 13 60 117 166 123 145 184 163 165 183 174 232 286 307 299 269 223 201 210 222 227 234 244 252 249 242 235 228 219 209 210 203
153 125 287 198 199 194 186 181 176 181 198 192 196 203 213 225 221 219 237 229 232 204 207 223 206 175 183 181 164 172 193 194 174 184 206 191 217 243 191 182 167 163 175 177 190 175 114 206 240 322 338 198 196 209 190 182 176 165 165 174 183 117 109 175 197 129 131 160 229 283 283 268 238 179 203 224 237 236 237 243 245 248 243 222 209 208 210 204
152 229 240 184 189 185 179 180 183 193 198 205 214 212 213 217 200 218 221 196 248 246 217 239 212 186 177 178 193 184 172 186 185 191 226 207 210 240 202 172 153 137 139 170 200 194 164 193 196 184 261 214 223 249 216 198 186 183 188 189 188 171 141 177 241 194 137 181 187 189 270 267 237 176 203 218 229 232 232 238 247 259 243 210 208 208 206 202
148 217 272 182 180 172 169 189 196 188 203 207 215 217 197 191 205 212 203 190 227 250 276 286 220 204 186 176 189 169 156 182 191 192 228 218 213 226 209 175 157 150 149 168 200 194 141 118 166 198 222 223 238 274 245 219 164 159 199 196 179 171 169 182 217 210 155 219 188 117 267 271 251 160 200 221 234 245 244 238 250 268 250 217 213 208 199 195
167 194 353 180 178 169 164 207 192 194 218 209 221 233 179 184 207 193 187 202 210 209 227 255 215 210 217 181 159 164 176 192 193 201 223 226 224 225 186 170 155 152 159 163 184 170 103 128 197 248 303 311 307 322 20 53 60 64 259 184 169 194 198 186 198 181 153 205 190 125 253 262 274 114 221 244 270 276 265 239 240 265 265 227 218 210 191 184
164 165 21 178 179 176 178 205 192 204 214 205 218 224 226 244 196 192 201 206 207 195 214 237 231 217 224 167 153 180 189 194 206 211 214 220 235 222 167 172 164 164 181 184 172 171 164 179 184 199 300 311 313 308 327 36 160 207 221 196 193 200 191 158 88 111 191 215 187 182 246 250 280 334 282 314 312 289 268 241 226 247 256 229 218 206 183 177
145 159 354 186 184 186 201 199 180 202 208 210 214 212 221 237 202 211 220 214 218 208 212 236 226 200 210 179 180 191 193 206 219 210 207 223 257 297 185 182 178 187 201 179 160 169 174 179 173 186 225 239 238 233 219 192 167 203 209 192 199 198 186 189 186 176 230 220 176 196 240 249 334 319 296 313 307 289 276 259 239 244 243 224 213 200 185 182
174 192 191 193 196 208 221 186 170 207 209 210 218 210 214 224 216 208 215 227 238 226 229 254 207 173 195 189 199 210 208 221 228 193 197 219 227 304 210 188 193 203 191 112 137 158 147 176 190 200 215 229 239 241 161 134 153 204 206 192 199 203 195 195 198 211 221 191 179 222 232 239 264 261 258 265 258 267 280 273 260 256 244 221 211 200 184 181
216 209 173 172 200 224 231 202 187 209 200 193 210 201 207 222 231 197 192 212 223 220 232 246 218 203 208 197 212 223 214 222 230 216 215 212 207 325 292 177 210 210 175 134 158 145 111 214 209 211 221 231 238 228 160 154 175 200 202 195 201 202 195 195 211 219 197 148 234 235 225 236 246 227 223 244 240 250 261 250 247 255 242 208 186 174 173 176
232 230 196 193 192 203 218 211 189 193 184 174 200 230 204 217 223 208 200 211 215 206 214 232 225 224 222 215 220 228 218 215 219 223 228 215 177 96 60 195 227 201 167 179 188 148 156 221 219 216 226 235 234 202 179 182 187 197 198 199 200 198 196 201 216 220 193 194 240 232 179 225 240 225 216 225 217 227 236 227 226 232 207 165 154 168 188 190
239 262 268 309 247 200 208 204 191 199 199 177 187 224 208 216 222 219 204 192 208 205 201 222 230 225 225 226 226 227 223 220 220 220 224 219 187 157 184 223 227 189 169 182 198 167 170 219 224 214 224 237 235 212 195 197 197 200 202 202 199 198 202 207 217 219 207 220 239 230 197 242 243 216 216 222 218 229 241 226 230 228 206 177 176 195 206 202
201 240 238 78 9 219 199 180 175 201 211 195 200 214 201 217 228 227 208 194 209 207 199 220 232 226 222 227 230 233 229 225 230 228 220 221 215 192 201 208 177 167 185 191 198 195 195 218 221 199 217 242 239 226 209 203 203 206 209 211 207 206 208 211 217 217 212 230 240 242 266 267 249 183 202 216 215 231 255 241 240 241 225 200 198 216 216 210
196 72 106 118 217 202 178 156 159 187 208 197 206 208 195 219 222 218 221 216 221 221 200 218 234 234 228 230 230 235 236 233 238 241 227 220 224 216 215 213 156 158 188 196 185 173 192 220 195 151 216 240 234 221 213 208 210 217 220 218 214 213 212 211 214 212 208 223 233 234 251 257 220 148 173 175 182 208 225 231 234 239 229 209 209 223 223 218
200 79 100 133 264 203 183 177 175 189 203 193 202 204 204 221 215 198 221 236 225 229 220 220 235 238 233 237 234 233 239 243 252 263 246 216 234 242 209 176 157 163 179 190 182 152 180 204 202 184 216 241 235 215 196 183 204 229 225 221 218 216 208 205 216 216 210 212 214 219 232 233 160 140 178 181 202 218 223 224 223 229 229 214 217 228 229 227